Starlink 32402

operational
NORAD ID: 61708 Int'l Des: 2024-196 Owner: SPXS Country: US Constellation: starlink
LEOCIRCULAR

About Starlink 32402

Description loading...

Live Position

Loading 3D Globe...

Upcoming Passes

Altitude History

Altitude vs Time

uPlot chart will show altitude changes over time

Two-Line Element Set

1 61708U 24196B 25259.08227486 -.00000596 00000-0 -79904-5 0 9990
2 61708 53.1609 192.3594 0001513 80.5518 279.5654 15.30180780 50420
Epoch: Sep 16, 2025 • Age: 14 hours

Current Status

Altitude 478.8 km
Velocity 7.63 km/s
Sub-Earth Point 43.98°N, 5.48°W
Launch Date Oct 30, 2024
Age 0.8 years
Type internet

Technical Details

Classification Payload
Mass 730.00 kg
Dry Mass 700.00 kg
Total Mass 730.00 kg
Length 0.30 m
Diameter 4.10 m
Span 29.00 m
Shape Box + pan
Manufacturer SPXS
Bus Type Starlink V2M
Phase Status In Orbit
Owner/State SPXS/US

Large Constellations

Loading constellations...